TimeEST,TemperatureF,Dew PointF,Humidity,Sea Level PressureIn,VisibilityMPH,Wind Direction,Wind SpeedMPH,Gust SpeedMPH,PrecipitationIn,Events,Conditions,WindDirDegrees,DateUTC
12:07 AM,64.4,60.8,88,29.98,10.0,Calm,Calm,-,N/A,,Overcast,0,2013-02-16 05:07:00
12:22 AM,62.6,57.2,82,29.98,10.0,NNE,6.9,-,N/A,,Overcast,20,2013-02-16 05:22:00
12:32 AM,64.4,57.2,77,29.99,10.0,North,4.6,-,N/A,,Overcast,10,2013-02-16 05:32:00
12:53 AM,63.0,57.9,84,29.99,10.0,North,5.8,-,0.01,Rain,Light Rain,360,2013-02-16 05:53:00
1:07 AM,62.6,57.2,82,29.98,10.0,North,4.6,-,N/A,,Overcast,10,2013-02-16 06:07:00
1:21 AM,62.6,55.4,77,29.97,10.0,North,5.8,-,N/A,,Overcast,10,2013-02-16 06:21:00
1:37 AM,62.6,55.4,77,29.96,10.0,North,5.8,-,N/A,,Overcast,10,2013-02-16 06:37:00
1:53 AM,62.1,55.0,78,29.96,10.0,NNE,5.8,-,N/A,,Overcast,20,2013-02-16 06:53:00
2:53 AM,62.1,55.0,78,29.94,10.0,Calm,Calm,-,N/A,,Overcast,0,2013-02-16 07:53:00
3:53 AM,60.1,54.0,80,29.94,10.0,NNW,5.8,-,N/A,,Mostly Cloudy,340,2013-02-16 08:53:00
4:53 AM,59.0,55.0,87,29.94,10.0,North,4.6,-,N/A,,Overcast,350,2013-02-16 09:53:00
5:53 AM,57.9,53.1,84,29.95,10.0,NW,6.9,-,N/A,,Scattered Clouds,320,2013-02-16 10:53:00
6:53 AM,57.9,48.9,72,29.96,10.0,North,4.6,-,N/A,,Scattered Clouds,350,2013-02-16 11:53:00
7:53 AM,57.9,50.0,75,29.96,10.0,NNW,5.8,-,N/A,,Partly Cloudy,330,2013-02-16 12:53:00
8:53 AM,62.1,48.9,62,29.97,10.0,NNW,8.1,-,N/A,,Mostly Cloudy,330,2013-02-16 13:53:00
9:53 AM,64.0,50.0,60,29.99,10.0,NW,9.2,-,N/A,,Mostly Cloudy,310,2013-02-16 14:53:00
10:53 AM,66.0,50.0,56,30.01,10.0,NNW,11.5,-,N/A,,Clear,330,2013-02-16 15:53:00
11:53 AM,66.9,48.0,51,30.01,10.0,NW,13.8,18.4,N/A,,Clear,310,2013-02-16 16:53:00
12:53 PM,68.0,48.0,49,30.00,10.0,WNW,19.6,29.9,N/A,,Partly Cloudy,300,2013-02-16 17:53:00
1:53 PM,69.1,48.0,47,29.97,10.0,NW,20.7,29.9,N/A,,Partly Cloudy,310,2013-02-16 18:53:00
2:53 PM,69.1,48.9,49,29.97,10.0,WNW,21.9,28.8,N/A,,Partly Cloudy,290,2013-02-16 19:53:00
3:53 PM,66.0,52.0,60,29.98,10.0,NW,24.2,33.4,N/A,,Mostly Cloudy,320,2013-02-16 20:53:00
4:53 PM,64.0,52.0,65,30.00,10.0,NW,19.6,28.8,N/A,,Mostly Cloudy,320,2013-02-16 21:53:00
5:05 PM,64.4,51.8,64,29.99,10.0,NNW,23.0,31.1,N/A,,Mostly Cloudy,330,2013-02-16 22:05:00
5:13 PM,62.6,50.0,63,30.00,10.0,NNW,15.0,31.1,N/A,,Partly Cloudy,330,2013-02-16 22:13:00
5:53 PM,62.1,46.0,56,30.01,10.0,NW,18.4,31.1,N/A,,Partly Cloudy,310,2013-02-16 22:53:00
6:53 PM,59.0,46.0,62,30.04,10.0,NNW,16.1,25.3,N/A,,Partly Cloudy,330,2013-02-16 23:53:00
7:53 PM,59.0,46.9,64,30.06,10.0,NNW,13.8,-,N/A,,Mostly Cloudy,330,2013-02-17 00:53:00
8:53 PM,57.0,46.0,67,30.09,10.0,NNW,9.2,-,N/A,,Partly Cloudy,340,2013-02-17 01:53:00
9:53 PM,57.0,46.0,67,30.11,10.0,NNW,6.9,-,N/A,,Mostly Cloudy,340,2013-02-17 02:53:00
10:53 PM,57.9,41.0,53,30.12,10.0,NNW,13.8,19.6,N/A,,Mostly Cloudy,330,2013-02-17 03:53:00
11:53 PM,59.0,39.0,48,30.11,10.0,NW,18.4,-,N/A,,Scattered Clouds,320,2013-02-17 04:53:00